{"data":{"norad_id":54880,"intl_designator":"2022-179A","name":"EROS C3","alt_names":[],"object_type":"PAYLOAD","status":"ACTIVE","operator":null,"country":"ISRA","launch_date":"2022-12-30","launch_site_code":"AFWTR","launch_vehicle":null,"mission":null,"orbit_class":"UNKNOWN","rcs_meters":null,"size_class":null,"mass_kg":null,"dimensions":null,"purposes":[],"wikipedia_slug":null,"has_3d_model":false,"image_url":null,"decayed_at":null,"tle_current":{"epoch":"2026-05-24T14:55:06.851712Z","epoch_age_seconds":103621,"freshness":"FRESH","line1":"1 54880U 22179A   26144.62160708  .00004791  00000+0  26835-3 0  9990","line2":"2 54880 139.3351 230.3433 0007284 168.1806 191.9173 15.10788911188763","mean_motion":15.10788911,"eccentricity":0.0007284,"inclination_deg":139.3351,"raan_deg":230.3433,"arg_perigee_deg":168.1806,"mean_anomaly_deg":191.9173,"bstar":0.00026835,"rev_number":18876,"period_min":95.314440655171,"perigee_km":528.75810279485,"apogee_km":538.82740205818,"semimajor_km":6911.9297524265,"source":"CELESTRAK","updated_at":"2026-05-25T13:37:58.808095Z"}}}